User: anonymous   Login
Location: Habighorst
(52.7089°N, 10.2278°E)
Time: 17:45:02
(UTC+00:00)
Language:

Resurs 01 Rocket - Orbit

View from above orbital plane
View from above orbital plane
View from above satellite
View from above satellite

Ground track
Ground track

The orbit is defined by the following mean orbital elements,

1 23343U          26064.05276086 +.00000000 +00000-0 +91116-4 0 00002
2 23343  97.7114  95.0582 0005466 228.2670 160.2790 14.79401664    00
Epoch (UTC): 05 March 2026 01:15:58
Eccentricity: 0.0005466
inclination: 97.7114°
perigee height: 627 km
apogee height: 635 km
right ascension of ascending node: 95.0582°
argument of perigee: 228.2670°
revolutions per day: 14.79401664
mean anomaly at epoch: 160.2790°

The dashed part of the orbit path shows where the satellite is in the earth's shadow,  

DLR